Location: Spring Creek
(38.2870°N, 100.2160°W)
Time: 13:09:49
(UTC+00:00)

PAYLOAD A - Visible Passes

Search period start: 24 September 2021 00:00
Search period end: 04 October 2021 00:00
Orbit: 691 x 833 km, 98.4° (Epoch: 23 September)

Date Brightness Start Highest point End Pass type
(mag) Time Alt. Az. Time Alt. Az. Time Alt. Az.
24 Sep 6.2 09:16:23 10° NE 09:19:35 18° E 09:19:35 18° E visible
24 Sep 4.2 10:54:20 10° N 10:58:44 41° WNW 10:59:42 36° W visible
25 Sep 3.8 10:16:21 10° NNE 10:21:05 81° ESE 10:21:25 75° SSE visible
25 Sep 5.8 11:58:39 10° NW 11:59:22 10° WNW 12:00:05 10° WNW visible
26 Sep 5.4 09:39:02 10° NE 09:43:08 32° E 09:43:08 32° E visible
26 Sep 4.9 11:18:15 10° NNW 11:22:02 24° WNW 11:23:16 22° W visible
27 Sep 6.6 09:03:02 10° ENE 09:04:51 13° E 09:04:51 13° E visible
27 Sep 3.8 10:39:51 10° N 10:44:30 58° WNW 10:44:59 55° W visible
28 Sep 4.3 10:02:06 10° NNE 10:06:42 57° E 10:06:42 57° E visible
28 Sep 5.5 11:42:41 10° NNW 11:45:16 15° WNW 11:46:49 13° W visible
29 Sep 6.0 09:25:06 10° NE 09:28:25 23° E 09:28:25 23° E visible
29 Sep 4.5 11:03:36 10° N 11:07:52 33° WNW 11:08:32 32° W visible
30 Sep 3.7 10:25:28 10° N 10:30:15 82° WNW 10:30:15 82° WNW visible
01 Oct 5.1 09:47:57 10° NNE 09:51:58 39° E 09:51:58 39° E visible
01 Oct 5.2 11:27:40 10° NNW 11:31:08 20° WNW 11:32:06 19° W visible
02 Oct 6.4 09:11:25 10° NE 09:13:41 16° E 09:13:41 16° E visible
02 Oct 4.1 10:49:04 10° N 10:53:39 47° WNW 10:53:49 46° WNW visible
03 Oct 4.1 10:11:11 10° NNE 10:15:32 67° ENE 10:15:32 67° ENE visible
03 Oct 5.7 11:52:29 10° NW 11:54:20 12° WNW 11:55:39 11° W visible
